Wind_Speed
20 20 20 20 19 17 16 16 16 15 15 14 12 11 11 10 10 11 12 14 17 16 16 18 17 17 16 16 18 21 23 25 23 19 20 28 33 39 40 40 43 49 50 48 47
21 21 21 21 19 17 15 15 16 16 14 14 13 12 11 11 13 14 14 16 17 16 15 15 15 15 16 16 18 20 23 27 25 25 27 31 33 35 36 39 41 47 44 47 43
21 21 21 21 19 18 16 17 16 15 14 14 13 13 14 15 16 16 16 17 16 15 13 14 12 14 16 17 20 21 27 30 30 26 28 30 34 39 38 33 37 42 43 47 49
21 22 21 21 19 18 18 16 14 14 15 15 16 17 17 17 18 18 19 16 15 13 12 12 14 14 17 18 21 22 27 31 34 30 28 32 37 42 41 36 36 42 46 48 50
23 22 22 20 19 19 17 15 15 15 16 17 18 18 19 19 19 19 18 16 13 11 13 15 14 16 20 24 26 27 27 30 36 37 33 32 39 45 42 39 40 42 46 49 52
23 22 21 19 19 18 17 16 15 17 18 18 19 19 20 20 20 18 16 14 13 13 14 14 16 18 21 24 25 27 28 29 35 37 37 38 39 45 45 40 40 46 51 52 52
23 22 21 19 19 18 18 17 18 18 19 20 20 19 19 19 17 16 14 14 13 14 14 15 19 22 24 25 27 28 30 32 35 43 39 40 44 47 43 38 42 44 47 51 52
23 22 21 21 20 19 19 19 20 19 19 20 19 17 17 16 16 14 14 13 13 14 16 18 20 23 27 27 28 32 33 34 35 39 46 42 43 47 43 37 34 40 40 44 47
23 23 22 21 20 20 20 20 19 18 18 17 15 15 15 14 14 15 13 12 14 17 18 19 21 25 28 28 30 34 36 36 38 37 41 47 49 49 39 38 31 32 33 35 38
24 23 22 21 20 20 19 18 17 17 17 15 14 13 13 14 14 13 13 14 16 18 20 21 25 27 29 31 33 35 39 36 40 39 41 46 47 44 34 35 27 30 33 32 34
24 23 22 21 20 19 18 17 17 17 16 14 14 13 13 13 13 14 15 15 17 20 22 23 27 28 31 34 37 39 42 44 41 45 45 47 47 41 34 31 29 29 30 32 37
24 23 22 20 19 19 18 18 17 17 16 16 15 15 13 13 13 14 16 18 20 23 24 27 29 30 33 36 37 40 44 49 48 47 50 51 43 37 25 22 28 32 33 36 39
24 23 21 20 19 18 18 17 17 17 18 17 15 13 12 12 13 17 18 20 22 24 25 30 33 32 36 38 38 41 44 48 52 55 56 51 42 39 31 23 26 31 32 37 42
24 23 22 20 21 22 20 18 17 20 19 17 16 14 15 14 15 15 17 19 23 26 28 33 35 33 38 39 43 44 46 49 53 53 60 56 40 42 30 28 29 31 34 38 42
27 25 23 22 22 22 24 21 22 22 21 19 16 16 16 15 14 15 19 22 25 28 30 33 36 37 37 39 44 46 49 51 55 57 56 53 40 36 36 38 39 39 40 43 45
31 30 27 25 25 25 23 24 24 24 23 20 18 19 19 20 19 19 22 27 30 32 33 35 38 43 41 40 43 48 52 52 55 60 55 46 36 36 40 43 43 43 42 44 48
36 34 33 31 28 25 25 26 26 26 26 27 23 21 24 25 27 27 29 34 36 33 35 36 39 44 45 44 44 47 51 55 61 58 54 43 38 39 40 41 39 43 44 43 43
40 39 36 35 30 29 29 27 24 26 29 30 28 28 26 28 31 30 30 34 36 36 37 38 40 43 46 48 49 50 54 55 59 53 45 40 41 43 40 41 39 40 43 48 51
44 43 42 38 36 35 34 32 28 31 30 31 31 32 32 31 31 34 34 34 38 38 39 41 42 41 44 46 49 51 52 56 55 44 41 41 44 42 42 40 44 49 53 55 58
45 46 43 42 40 39 40 36 33 33 36 37 36 35 35 34 36 36 35 37 40 42 41 44 45 41 44 47 51 54 55 57 48 39 40 43 41 42 40 41 43 44 50 55 60
47 48 47 46 45 44 43 39 38 41 42 41 41 40 40 39 39 37 38 39 40 41 43 44 45 46 45 47 51 55 59 53 42 37 37 40 47 44 42 46 47 49 54 59 67
51 51 49 50 49 49 46 42 44 45 46 41 41 39 40 40 40 37 39 41 41 41 43 45 47 50 50 48 51 56 60 45 38 40 38 36 43 43 45 47 49 53 60 65 70
56 56 54 51 52 51 47 47 45 45 48 44 45 43 44 40 40 40 43 44 44 43 45 46 48 52 52 52 52 59 54 42 37 38 37 37 42 45 51 54 58 59 61 66 71
65 61 57 58 58 56 54 53 52 50 51 50 48 47 46 43 46 44 47 48 47 47 48 49 49 51 52 53 54 56 48 41 41 39 36 39 41 45 49 51 54 60 65 67 74
69 67 66 65 62 63 61 60 57 56 56 52 50 49 50 51 51 48 49 50 50 51 49 49 50 50 55 54 57 49 40 40 39 37 34 37 38 44 48 52 56 59 64 68 73
71 72 69 70 70 67 66 63 61 60 58 56 55 55 54 55 55 53 50 51 52 52 51 49 49 51 54 53 56 45 41 40 39 38 38 38 41 45 50 53 56 62 67 72 77
76 73 72 70 72 72 69 65 64 61 60 57 57 58 57 58 55 53 50 50 51 53 52 50 53 53 52 55 52 41 40 40 37 37 37 40 45 48 53 57 61 66 68 73 77
Wind_Direction
231 230 226 224 223 226 231 233 232 231 237 235 235 236 244 252 262 271 279 291 295 293 294 294 292 290 289 288 289 288 290 284 277 271 269 267 260 257 253 251 250 254 257 255 254
235 234 228 226 226 230 233 229 231 235 230 233 233 241 253 261 264 268 281 294 294 293 291 288 292 296 302 310 307 305 301 295 298 294 285 278 272 266 258 257 259 264 263 257 250
240 238 233 229 229 229 223 228 230 228 232 234 240 247 253 256 261 272 286 295 291 289 287 292 295 302 307 310 311 313 304 305 299 298 291 289 286 277 268 262 260 261 262 264 261
239 234 231 228 226 220 222 227 225 227 233 235 241 247 254 261 269 281 290 287 283 281 290 295 296 303 303 308 312 316 309 305 301 299 299 301 296 291 281 272 262 263 259 257 258
234 229 224 223 219 219 222 224 225 228 234 238 245 252 259 268 275 281 282 278 272 276 288 290 299 306 313 316 318 318 313 305 302 304 305 302 301 295 291 288 277 267 263 260 256
229 224 219 219 219 221 224 230 236 238 240 245 251 259 265 269 274 276 272 265 267 278 288 292 301 303 309 314 317 313 312 306 302 300 304 306 303 300 301 290 279 272 268 263 258
228 223 220 221 225 228 232 239 244 244 245 248 255 264 265 268 268 267 260 263 268 281 289 298 305 312 311 311 309 310 311 308 308 307 310 308 309 307 307 297 288 278 273 271 267
228 225 225 229 232 236 239 242 245 246 247 251 254 256 258 262 263 257 266 268 274 282 292 303 310 308 309 309 304 305 312 311 308 310 315 316 314 308 308 300 289 284 277 274 274
225 227 229 231 234 238 241 242 243 242 243 245 246 249 253 252 256 265 266 272 282 290 298 306 309 312 311 309 310 307 310 311 313 316 315 321 319 313 310 300 293 284 280 277 275
223 227 230 233 236 238 239 238 236 235 236 239 243 241 246 252 257 263 269 277 288 294 299 304 311 316 310 310 314 317 310 313 319 317 315 318 320 316 306 298 295 282 279 275 275
222 225 228 232 235 235 234 235 233 234 234 234 226 236 244 250 258 266 276 287 294 296 299 305 313 316 315 311 317 321 317 316 317 320 320 324 325 320 315 305 297 288 283 274 274
222 222 225 229 235 237 233 230 233 230 227 222 226 235 242 256 265 277 284 288 293 296 303 305 311 317 315 317 319 320 320 320 323 325 326 328 326 318 321 307 299 294 294 292 284
218 220 225 232 236 233 230 236 232 224 222 223 227 239 249 258 272 284 291 295 298 302 308 309 312 318 313 318 321 321 321 324 326 326 328 332 326 321 324 308 292 288 289 284 286
221 230 233 237 238 235 235 239 230 226 224 227 229 241 258 268 277 289 299 306 308 308 309 309 313 316 316 319 321 322 324 326 328 328 329 330 326 322 318 307 301 300 295 291 289
229 231 237 241 242 238 235 234 231 229 229 225 241 249 259 266 277 292 306 309 307 309 312 310 313 315 318 320 320 321 325 326 328 328 328 327 325 320 320 317 312 304 301 300 300
232 234 240 245 245 242 239 239 234 229 237 237 242 259 268 273 277 289 303 307 305 308 311 312 312 315 319 320 323 321 322 325 328 327 326 326 321 318 318 316 318 315 309 304 302
234 236 240 245 247 246 245 242 235 230 240 250 248 257 268 275 284 290 295 299 298 304 307 311 314 315 317 320 321 321 323 325 327 326 324 324 321 320 320 317 315 309 308 308 309
235 238 240 242 245 247 247 245 234 239 243 251 263 268 271 281 288 292 296 295 294 302 307 309 313 316 316 319 321 323 325 325 325 322 320 323 321 320 322 318 315 319 323 324 325
238 239 241 241 242 247 249 245 244 248 251 257 259 266 275 282 282 289 297 295 295 303 305 308 312 316 313 316 318 321 320 323 322 320 318 321 321 325 325 328 330 334 333 331 330
237 240 241 242 243 247 248 248 250 255 257 260 265 268 275 277 280 287 289 291 296 304 306 309 310 314 314 316 318 321 323 326 322 319 318 319 320 327 331 330 330 331 329 330 327
238 238 239 240 243 245 246 245 247 254 259 265 267 269 271 275 279 284 286 289 295 300 304 306 308 312 315 318 320 321 323 325 322 320 319 322 320 332 334 333 333 330 328 327 327
241 244 244 245 247 249 250 251 251 259 261 263 263 268 274 277 282 283 287 289 294 298 304 307 308 311 315 320 321 321 325 325 323 319 321 322 319 331 328 329 332 330 329 328 326
244 244 245 247 248 251 250 250 249 253 260 262 269 271 274 278 281 284 288 291 294 298 303 305 308 312 315 322 323 323 325 324 324 323 319 315 320 327 329 332 333 331 328 326 327
246 246 248 248 249 247 248 246 249 253 259 263 266 271 276 278 281 284 287 289 292 298 301 304 307 311 315 322 323 324 321 323 325 325 323 319 322 324 326 330 331 331 332 333 331
246 243 245 249 248 249 250 251 252 254 258 264 270 273 275 279 281 285 285 290 293 297 300 303 307 311 315 321 323 321 318 317 324 322 318 318 324 325 328 331 332 333 335 335 336
246 245 244 244 249 250 250 251 252 254 260 264 266 270 275 276 278 282 287 289 292 295 298 302 308 309 314 320 322 317 315 319 322 324 318 328 331 331 329 333 334 335 337 337 337
245 247 247 247 246 248 248 248 252 254 256 260 264 267 269 273 279 282 283 285 290 294 298 302 306 310 315 319 319 315 318 320 329 324 324 330 332 332 332 336 338 337 337 337 337
Height
10918 10919 10921 10922 10924 10925 10927 10929 10930 10931 10933 10935 10936 10937 10938 10939 10940 10940 10939 10939 10938 10937 10935 10933 10932 10930 10929 10928 10925 10923 10921 10918 10920 10925 10924 10919 10918 10918 10921 10922 10921 10910 10916 10919 10926
10915 10916 10918 10919 10921 10922 10924 10926 10927 10929 10931 10932 10933 10934 10936 10937 10937 10937 10937 10936 10934 10933 10932 10930 10928 10928 10925 10924 10922 10919 10915 10911 10914 10915 10913 10909 10909 10907 10910 10912 10912 10901 10907 10902 10910
10911 10913 10915 10916 10918 10920 10922 10923 10925 10927 10928 10929 10930 10932 10933 10933 10934 10934 10934 10933 10931 10930 10928 10927 10925 10924 10922 10921 10919 10916 10910 10906 10905 10908 10905 10900 10896 10893 10900 10909 10906 10896 10894 10891 10891
10908 10909 10911 10913 10915 10917 10919 10921 10923 10924 10925 10926 10928 10928 10929 10930 10931 10931 10930 10929 10928 10927 10926 10925 10923 10922 10920 10918 10916 10913 10908 10901 10898 10900 10901 10896 10889 10882 10884 10892 10894 10886 10883 10882 10878
10904 10906 10907 10909 10911 10914 10916 10918 10919 10921 10922 10923 10924 10925 10926 10927 10927 10927 10926 10925 10924 10924 10923 10921 10920 10918 10915 10912 10909 10906 10906 10900 10892 10892 10894 10892 10884 10872 10874 10880 10878 10875 10870 10865 10864
10900 10902 10904 10906 10908 10910 10913 10915 10917 10918 10919 10920 10921 10922 10922 10923 10922 10922 10922 10921 10921 10921 10920 10918 10917 10916 10914 10910 10907 10904 10901 10898 10890 10888 10886 10882 10877 10866 10864 10866 10864 10857 10850 10849 10851
10896 10898 10900 10902 10904 10907 10910 10912 10914 10915 10916 10917 10918 10918 10918 10918 10917 10918 10918 10918 10918 10917 10916 10915 10914 10911 10909 10908 10903 10900 10897 10893 10886 10875 10879 10875 10866 10858 10858 10853 10843 10841 10838 10833 10835
10892 10894 10896 10899 10901 10904 10906 10908 10910 10911 10912 10913 10914 10914 10914 10913 10914 10914 10914 10914 10914 10913 10912 10912 10910 10908 10905 10903 10900 10895 10892 10886 10884 10875 10861 10864 10859 10850 10846 10844 10838 10828 10826 10823 10819
10888 10890 10893 10895 10898 10900 10902 10904 10906 10907 10907 10908 10909 10910 10910 10910 10910 10911 10911 10911 10910 10909 10908 10908 10906 10904 10900 10897 10893 10888 10885 10880 10875 10871 10862 10855 10847 10838 10835 10831 10830 10824 10817 10814 10812
10883 10886 10889 10891 10894 10896 10898 10900 10901 10902 10903 10904 10906 10906 10907 10907 10907 10907 10907 10908 10907 10906 10904 10903 10901 10898 10895 10890 10887 10882 10873 10874 10867 10864 10857 10850 10841 10831 10826 10821 10822 10817 10811 10807 10804
10879 10882 10885 10887 10890 10892 10894 10896 10897 10899 10900 10901 10902 10902 10903 10904 10904 10904 10904 10904 10903 10901 10900 10898 10895 10892 10888 10882 10879 10872 10864 10861 10862 10852 10846 10840 10831 10823 10817 10813 10811 10808 10804 10801 10795
10876 10879 10881 10884 10886 10888 10890 10891 10893 10894 10895 10897 10898 10899 10900 10901 10902 10901 10901 10900 10899 10896 10894 10891 10890 10887 10881 10876 10872 10866 10856 10848 10846 10843 10834 10827 10821 10815 10815 10809 10802 10796 10793 10789 10786
10872 10875 10877 10880 10882 10884 10886 10887 10888 10890 10891 10893 10895 10895 10896 10898 10898 10897 10897 10896 10894 10892 10889 10885 10882 10881 10874 10869 10866 10860 10852 10844 10835 10825 10819 10816 10806 10805 10804 10802 10796 10790 10787 10782 10776
10868 10871 10873 10876 10877 10879 10882 10884 10885 10885 10887 10889 10891 10892 10893 10893 10894 10893 10892 10891 10889 10887 10885 10880 10876 10875 10868 10862 10856 10851 10844 10836 10828 10821 10807 10801 10800 10789 10793 10790 10788 10784 10779 10773 10769
10863 10866 10869 10871 10873 10876 10876 10878 10879 10881 10883 10885 10887 10888 10889 10889 10890 10889 10888 10886 10884 10881 10879 10874 10869 10866 10863 10857 10848 10841 10835 10829 10819 10812 10805 10794 10790 10783 10778 10774 10773 10771 10768 10761 10755
10857 10861 10864 10865 10867 10869 10872 10873 10874 10876 10878 10881 10884 10883 10884 10883 10884 10884 10883 10880 10877 10875 10873 10868 10862 10856 10853 10851 10843 10833 10825 10822 10814 10803 10797 10791 10786 10779 10771 10765 10759 10755 10752 10748 10743
10850 10854 10857 10859 10862 10865 10865 10866 10869 10872 10874 10874 10875 10879 10879 10879 10877 10878 10877 10874 10869 10869 10866 10863 10856 10849 10842 10841 10837 10829 10819 10809 10802 10795 10786 10782 10777 10772 10768 10760 10755 10749 10743 10737 10730
10843 10846 10849 10852 10856 10858 10859 10861 10864 10866 10868 10869 10869 10871 10873 10873 10872 10870 10871 10866 10860 10861 10859 10856 10852 10844 10835 10830 10824 10819 10810 10803 10794 10786 10779 10774 10768 10763 10758 10753 10745 10738 10729 10720 10711
10835 10838 10841 10845 10848 10850 10852 10855 10859 10859 10862 10863 10865 10866 10867 10868 10866 10863 10863 10859 10851 10854 10850 10846 10845 10841 10833 10827 10819 10813 10808 10800 10787 10778 10770 10766 10760 10755 10748 10739 10729 10720 10710 10701 10694
10825 10828 10833 10836 10839 10841 10843 10848 10852 10853 10852 10855 10857 10858 10861 10860 10859 10860 10855 10851 10847 10844 10841 10836 10833 10835 10827 10820 10811 10805 10798 10791 10780 10773 10765 10759 10754 10750 10742 10733 10726 10718 10709 10699 10688
10814 10817 10822 10826 10829 10831 10835 10841 10844 10843 10844 10847 10848 10850 10850 10852 10851 10851 10848 10844 10842 10838 10834 10830 10824 10823 10822 10814 10804 10794 10788 10780 10772 10767 10761 10751 10738 10740 10734 10725 10718 10711 10701 10690 10677
10803 10806 10811 10815 10819 10822 10827 10833 10834 10833 10833 10837 10837 10840 10841 10842 10841 10842 10837 10835 10834 10831 10826 10822 10817 10811 10810 10806 10797 10788 10779 10771 10765 10758 10752 10748 10737 10734 10728 10721 10714 10704 10691 10678 10666
10791 10794 10800 10805 10807 10811 10817 10818 10822 10823 10820 10828 10827 10830 10829 10831 10831 10831 10827 10825 10823 10822 10819 10815 10809 10801 10799 10796 10786 10777 10770 10765 10760 10754 10747 10741 10733 10725 10716 10708 10701 10692 10685 10673 10656
10778 10784 10790 10788 10793 10797 10801 10805 10808 10812 10808 10813 10817 10819 10817 10821 10818 10821 10818 10816 10814 10812 10809 10805 10802 10794 10788 10787 10779 10767 10760 10755 10751 10745 10740 10731 10726 10720 10713 10706 10698 10685 10671 10657 10642
10762 10769 10774 10773 10780 10781 10788 10792 10797 10798 10801 10805 10808 10807 10808 10807 10807 10807 10808 10804 10802 10801 10800 10796 10792 10786 10781 10775 10769 10764 10757 10750 10746 10741 10736 10730 10723 10715 10706 10698 10688 10677 10663 10649 10631
10745 10750 10760 10762 10763 10770 10773 10777 10785 10789 10791 10797 10796 10796 10796 10793 10793 10796 10798 10794 10791 10788 10788 10787 10783 10778 10773 10767 10759 10752 10748 10744 10739 10733 10726 10721 10715 10706 10697 10690 10680 10666 10651 10633 10616
10727 10732 10740 10748 10750 10750 10758 10765 10768 10775 10780 10783 10782 10783 10784 10780 10782 10783 10788 10786 10782 10777 10776 10774 10771 10768 10764 10759 10752 10745 10739 10735 10731 10724 10718 10712 10704 10696 10686 10676 10666 10654 10642 10628 10614